Location: Shepherdstown, WV
(39.4326°N, 77.8042°W)
Time: 20:26:28
(UTC-04:00)

Vanguard 1 Rocket - Pass Details

Date: 12 August 2021
Orbit: 650 x 4226 km, 34.3° (Epoch: 19 September)

Event Time Altitude Azimuth Distance (km) Brightness Sun altitude
Rises 08:30:04 0° 241° (WSW) 8,196 11.8 23.5°
Reaches altitude 10° 08:35:33 10° 239° (WSW) 7,338 11.6 24.6°
Maximum altitude 09:01:33 68° 164° (SSE) 3,970 11.2 29.6°
Drops below altitude 10° 09:19:23 10° 86° (E) 5,349 12.7 33.0°
Sets 09:22:38 0° 84° (E) 5,987 12.6 33.6°
